Flag for Russia Weather past 2 weeks in Samara, Russia

Now
63 °F

Sunny.


Feels Like: 63 °F
Forecast: 57 / 74 °F
Wind: 8 mph from West

Location: Samara

Current Time: Jul 3, 2015 at 6:37:56 AM

Latest Report: Jul 3, 2015 at 6:00 AM


Visibility: 10 mi

Pressure: 29.89 "Hg

Humidity: 68%

Dew point: 52 °F

Location of SamaraLocation

Historic Weather in Samara — Graph

°F

Samara temperature yesterday

Maximum temperature yesterday: 79 °F (at 5:30 PM)
Minimum temperature yesterday: 63 °F (at 3:30 AM)
Average temperature yesterday: 70 °F

Past Weeks' High & Low Weather Summary

 TemperatureHumidityPressure
High99 °F (Jun 21, 2:30 PM)88% (Jul 1, 6:00 PM)29.95 "Hg (Jul 1, 6:00 PM)
Low61 °F (Jun 27, 4:30 AM)14% (Jun 18, 2:00 PM)29.62 "Hg (Jun 28, 5:30 PM)
Average77 °F48%29.82 "Hg
* Reported Jun 18 5:00 AM — Jul 3 5:00 AM, Samara, Weather by CustomWeather, © 2015

Note: Actual official high and low records may vary slightly from our data, if they occured in-between our weather recording intervals... More about our weather records

Advertising

Samara weather history for previous 24 hours

 ConditionsComfort  
Time TempWeatherWind HumidityBarometerVisibility
5:00 AM
Fri, Jul 3
61 °FClear.8 mph72%29.89 "Hg10 mi
4:30 AM61 °FClear.8 mph72%29.89 "Hg10 mi
4:00 AM63 °FClear.10 mph64%29.92 "Hg10 mi
3:30 AM63 °FClear.10 mph64%29.89 "Hg10 mi
3:00 AM63 °FClear.10 mph64%29.92 "Hg10 mi
2:30 AM63 °FClear.10 mph64%29.89 "Hg10 mi
2:00 AM64 °FMostly cloudy.8 mph60%29.89 "HgN/A
1:30 AM64 °FMostly cloudy.8 mph60%29.92 "HgN/A
1:00 AM64 °FMostly cloudy.10 mph60%29.92 "HgN/A
12:30 AM66 °FMostly cloudy.8 mph56%29.92 "HgN/A
12:00 AM66 °FMostly cloudy.8 mph56%29.92 "HgN/A
11:30 PM
Thu, Jul 2
66 °FMostly cloudy.8 mph56%29.92 "HgN/A
11:00 PM64 °FMostly cloudy.6 mph60%29.92 "HgN/A
10:30 PM64 °FMostly cloudy.6 mph60%29.92 "HgN/A
10:00 PM70 °FMore clouds than sun.6 mph46%29.89 "HgN/A
9:30 PM72 °FBroken clouds.6 mph44%29.89 "HgN/A
9:00 PM72 °FBroken clouds.6 mph41%29.89 "HgN/A
8:30 PM73 °FBroken clouds.8 mph38%29.89 "HgN/A
8:00 PM75 °FBroken clouds.13 mph34%29.89 "HgN/A
7:30 PM77 °FBroken clouds.8 mph30%29.89 "HgN/A
7:00 PM79 °FBroken clouds.10 mph26%29.89 "HgN/A
6:30 PM79 °FScattered clouds.6 mph30%29.89 "HgN/A
6:00 PM77 °FBroken clouds.8 mph32%29.89 "HgN/A
5:30 PM79 °FBroken clouds.10 mph28%29.89 "HgN/A
5:00 PM77 °FBroken clouds.8 mph34%29.89 "HgN/A
4:30 PM77 °FBroken clouds.13 mph34%29.89 "HgN/A
4:00 PM75 °FBroken clouds.15 mph36%29.89 "HgN/A
3:30 PM77 °FBroken clouds.13 mph34%29.89 "HgN/A
3:00 PM77 °FBroken clouds.13 mph32%29.86 "HgN/A
2:30 PM75 °FBroken clouds.10 mph41%29.86 "HgN/A
2:00 PM75 °FBroken clouds.15 mph34%29.86 "HgN/A
1:30 PM77 °FBroken clouds.8 mph36%29.86 "HgN/A
1:00 PM73 °FCloudy.15 mph41%29.86 "HgN/A
12:30 PM75 °FCloudy.13 mph41%29.86 "HgN/A
12:00 PM73 °FCloudy.10 mph44%29.86 "HgN/A
11:30 AM70 °FCloudy.8 mph69%29.86 "HgN/A
11:00 AM73 °FSprinkles. Cloudy.10 mph50%29.86 "HgN/A
10:30 AM73 °FBroken clouds.13 mph53%29.86 "HgN/A
10:00 AM70 °FCloudy.8 mph60%29.86 "HgN/A
9:30 AM68 °FBroken clouds.8 mph73%29.86 "HgN/A
9:00 AM68 °FBroken clouds.8 mph73%29.86 "HgN/A
8:30 AM68 °FBroken clouds.10 mph73%29.86 "HgN/A
8:00 AM64 °FMore clouds than sun.8 mph83%29.86 "HgN/A
7:30 AM64 °FMore clouds than sun.10 mph83%29.86 "HgN/A
7:00 AM64 °FMore clouds than sun.6 mph83%29.83 "HgN/A
6:30 AM64 °FMore clouds than sun.8 mph83%29.83 "HgN/A
6:00 AM63 °FFog.8 mph88%29.83 "Hg3 mi
Weather by CustomWeather, © 2015

See weather overviewHow to use our weather pages